Location: Rehoboth Beach
(38.7438°N, 75.1341°W)
Time: 05:21:39
(UTC-05:00)

Hubble Space Telescope - Visible Passes

Search period start: 24 February 2017 00:00
Search period end: 06 March 2017 00:00
Orbit: 538 x 542 km, 28.5° (Epoch: 23 February)

Date Brightness Start Highest point End Pass type
(mag) Time Alt. Az. Time Alt. Az. Time Alt. Az.
24 Feb 3.1 19:30:11 10° SSW 19:31:24 12° S 19:31:24 12° S visible
25 Feb 2.9 19:19:39 10° SSW 19:21:56 14° SSE 19:22:09 14° SSE visible
26 Feb 2.7 19:09:16 10° SSW 19:11:51 16° S 19:12:52 15° SSE visible
27 Feb 2.7 18:59:00 10° SW 19:01:46 17° S 19:03:33 14° SE visible
28 Feb 2.7 18:48:48 10° SW 18:51:42 19° S 18:54:14 12° SE visible
28 Feb 3.7 20:29:30 10° SW 20:29:36 10° SW 20:29:36 10° SW visible
01 Mar 2.7 18:38:39 10° SW 18:41:38 19° S 18:44:36 10° SE visible
01 Mar 3.5 20:19:37 10° SW 20:20:16 12° SW 20:20:16 12° SW visible
02 Mar 2.7 18:28:33 10° SW 18:31:33 19° S 18:34:33 10° SE visible
02 Mar 3.3 20:09:48 10° SW 20:10:57 13° SSW 20:10:57 13° SSW visible
03 Mar 2.8 18:18:29 10° SW 18:21:29 19° S 18:24:28 10° SE visible
03 Mar 3.3 20:00:07 10° SW 20:01:39 13° SSW 20:01:39 13° SSW visible
04 Mar 3.3 19:50:43 10° SW 19:51:56 11° SSW 19:52:23 11° S visible
